カタログに戻る

STARLINK-3505

運用中通信VLEO
NORAD 51750·PAYLOAD·🇺🇸 United States

打ち上げ Feb 21, 2022 から Cape Canaveral Space Force Station

Loading…

次のパス (今後24時間)

TLE

最新Source: CelesTrak SupGP

元期: Sep 15, 2026, 01:43 UTC

1 51750C 22016AN  26258.07201389  .00005376  00000+0  17284-3 0  2585
2 51750  53.1587 167.1487 0001046  81.8975 208.1518 15.31704886    11

AllMySatでSTARLINK-3505をリアルタイム追跡

Download on the App Store